Vorticity
6 -4 3 3 9 13 6 6 9 7 8 4 5 3 5 3 11 10 14 14 9 12 11 11 8 4 0 -1 1 4 7 11 16 13 10 9 7 7 6 6 7 8 8 9
0 0 23 7 11 5 7 -4 9 6 8 5 8 5 2 11 11 11 10 10 10 11 9 8 2 -1 0 1 5 9 12 14 10 8 7 6 5 6 6 6 5 5 5 5
4 8 -15 -3 -2 4 6 5 -2 5 8 8 7 4 5 5 13 7 11 12 11 9 6 3 1 0 1 5 8 13 12 9 7 6 7 6 5 3 3 3 3 3 3 3
1 5 5 -1 7 11 6 8 6 4 11 9 5 9 5 5 10 6 8 9 5 2 -0 1 3 5 6 10 15 11 9 9 8 7 4 2 3 4 4 5 6 7 7 7
8 1 5 3 7 7 16 12 4 4 12 7 7 5 9 7 9 8 7 6 4 4 3 5 8 14 17 16 9 7 5 5 6 6 6 7 8 8 7 6 5 4 3 3
9 8 6 7 3 10 8 2 2 3 10 6 5 -0 4 8 8 7 5 4 4 4 8 12 11 9 9 6 5 7 9 8 6 6 7 6 5 4 4 3 3 4 4 5
14 20 14 6 8 7 7 5 4 5 7 7 3 5 5 6 9 5 3 5 6 11 11 9 6 7 7 9 11 7 5 4 4 4 4 3 3 3 4 6 9 12 13 13
15 6 7 12 5 4 6 5 5 5 9 9 7 6 9 9 12 11 11 10 10 7 8 7 8 10 7 3 2 4 5 4 4 4 4 5 7 11 11 8 5 4 3 3
-19 24 7 4 8 10 6 5 7 6 7 9 8 11 11 15 15 11 10 11 7 8 6 8 6 6 5 4 4 6 4 4 6 8 10 8 3 2 2 4 7 9 9 9
16 3 9 11 11 5 4 5 8 7 9 11 14 15 17 14 12 10 8 4 4 7 8 5 5 5 4 4 6 6 8 8 5 2 3 -0 -0 5 6 7 4 1 1 1
7 5 10 9 7 6 7 5 10 9 13 16 12 11 10 7 5 5 6 5 7 7 8 7 5 4 6 8 10 9 4 -4 1 3 3 4 4 3 4 2 1 2 3 3
7 10 11 10 10 8 8 8 8 11 11 8 6 5 5 4 4 5 7 9 12 8 5 4 6 9 8 4 3 0 1 5 3 1 4 4 5 5 4 2 2 3 3 1
11 10 12 8 7 7 7 8 7 6 6 6 6 9 7 8 7 7 7 7 1 6 8 8 9 5 2 -0 1 2 3 3 3 5 6 6 5 3 2 3 3 2 1 2
6 6 13 9 14 12 8 7 7 6 7 7 12 5 7 6 3 7 9 10 8 10 10 9 5 3 3 4 3 2 4 6 6 5 3 1 3 6 5 5 3 3 6 8
11 14 8 9 5 9 6 8 10 9 6 8 2 5 7 1 14 7 5 5 5 5 4 5 5 3 2 1 3 6 5 5 4 1 5 7 6 4 4 6 6 7 13 18
7 1 -3 6 6 8 7 6 5 6 7 8 8 15 7 8 3 7 5 4 6 6 2 3 4 3 3 3 4 4 5 3 4 8 8 4 5 6 6 12 17 18 15 15
-6 -10 5 3 5 10 9 9 7 5 7 7 12 5 2 3 3 4 5 3 2 1 2 1 2 4 5 5 6 6 5 9 8 5 5 5 6 12 19 21 21 21 27 30
20 18 14 13 9 11 9 2 5 7 8 10 5 -2 2 3 3 0 2 2 1 2 2 5 8 10 11 9 7 9 11 5 5 7 9 9 17 28 25 22 26 23 18 17
5 5 6 9 8 5 7 6 7 10 3 3 6 -1 4 3 -3 0 1 0 2 5 7 9 10 6 7 6 11 6 5 4 6 7 11 24 24 28 24 20 14 13 10 8
9 8 7 9 10 14 13 12 14 6 6 5 -1 3 1 1 0 2 2 5 8 9 9 7 7 6 9 9 6 2 2 6 4 20 31 27 21 17 13 11 9 6 4 5
7 8 9 10 11 10 8 6 5 1 4 1 1 2 1 2 4 3 3 5 6 8 6 6 7 11 10 1 0 7 4 10 28 34 20 17 15 12 11 9 7 4 4 4
9 7 8 5 6 4 5 6 3 2 3 4 3 4 2 3 4 7 7 9 7 5 7 6 8 8 1 2 6 4 13 25 30 18 18 15 13 12 10 7 6 6 6 4
6 6 7 6 5 4 4 4 2 2 3 4 3 6 10 7 7 8 8 8 8 6 5 9 8 1 2 7 7 18 26 28 24 16 13 12 10 7 6 6 4 2 3 5
6 3 4 2 5 1 1 3 2 3 4 5 8 8 8 8 8 6 6 6 6 5 10 8 3 -0 7 10 17 23 24 23 11 10 12 11 9 7 5 2 4 6 8 11
8 8 7 7 6 5 6 4 5 3 4 6 6 8 6 5 4 4 6 5 6 10 10 3 2 6 8 21 26 23 20 13 13 12 10 7 4 2 4 6 9 13 21 29
4 4 8 4 4 3 3 4 4 4 5 4 4 5 5 3 3 6 5 6 10 8 3 1 7 10 21 26 23 15 14 10 9 8 5 3 5 7 8 13 19 26 36 27
Height
5740 5748 5753 5765 5776 5780 5780 5787 5793 5798 5801 5805 5810 5812 5812 5813 5818 5818 5818 5818 5818 5818 5818 5819 5820 5821 5821 5821 5820 5818 5815 5813 5810 5806 5803 5801 5798 5796 5794 5791 5789 5786 5784 5781
5734 5739 5755 5764 5768 5773 5777 5784 5790 5794 5797 5802 5806 5808 5809 5810 5813 5814 5813 5814 5814 5814 5814 5815 5816 5815 5814 5813 5812 5810 5808 5806 5803 5801 5798 5794 5792 5789 5787 5784 5782 5779 5777 5773
5733 5745 5754 5759 5767 5768 5774 5783 5788 5790 5793 5796 5800 5804 5806 5807 5807 5808 5808 5810 5809 5810 5810 5810 5810 5808 5807 5805 5803 5801 5798 5797 5795 5793 5791 5789 5787 5784 5781 5778 5775 5771 5768 5765
5731 5744 5748 5755 5762 5766 5774 5781 5784 5785 5787 5791 5796 5800 5802 5803 5803 5802 5804 5806 5805 5805 5805 5805 5804 5802 5801 5799 5797 5794 5792 5789 5787 5786 5783 5781 5778 5776 5773 5769 5766 5762 5757 5753
5728 5734 5741 5749 5761 5765 5774 5776 5779 5781 5784 5788 5791 5795 5799 5800 5798 5798 5800 5801 5801 5801 5800 5799 5798 5796 5795 5793 5791 5788 5786 5783 5781 5779 5776 5773 5770 5767 5764 5760 5756 5752 5747 5742
5721 5734 5741 5752 5757 5763 5768 5772 5775 5776 5779 5784 5785 5789 5796 5795 5794 5794 5794 5796 5796 5795 5793 5792 5791 5790 5789 5787 5785 5783 5780 5776 5773 5770 5767 5764 5761 5757 5753 5749 5745 5740 5735 5730
5717 5727 5737 5745 5752 5758 5763 5767 5770 5772 5775 5781 5781 5784 5791 5791 5789 5788 5789 5790 5790 5788 5786 5786 5785 5784 5782 5781 5778 5775 5772 5768 5765 5762 5758 5754 5750 5746 5741 5736 5732 5727 5722 5717
5715 5724 5733 5742 5749 5757 5761 5764 5767 5768 5772 5776 5776 5778 5783 5784 5783 5782 5784 5784 5781 5780 5780 5780 5778 5777 5775 5773 5769 5766 5762 5758 5755 5752 5748 5743 5738 5734 5729 5725 5719 5714 5708 5703
5713 5724 5733 5741 5748 5752 5755 5759 5763 5765 5767 5770 5771 5773 5775 5777 5777 5778 5780 5778 5775 5774 5774 5772 5770 5769 5767 5765 5761 5758 5754 5750 5746 5741 5737 5733 5728 5723 5718 5711 5705 5699 5693 5687
5718 5726 5732 5739 5743 5747 5752 5755 5758 5760 5764 5765 5765 5767 5771 5771 5771 5773 5773 5772 5769 5768 5766 5765 5763 5761 5758 5755 5752 5749 5744 5740 5737 5733 5728 5724 5718 5712 5705 5698 5692 5686 5679 5671
5716 5725 5731 5735 5739 5745 5749 5751 5754 5757 5760 5761 5762 5764 5765 5766 5767 5766 5765 5764 5763 5761 5759 5756 5754 5753 5750 5747 5743 5739 5736 5733 5727 5722 5717 5711 5704 5698 5691 5684 5677 5670 5662 5654
5716 5722 5727 5735 5739 5741 5743 5747 5750 5753 5758 5757 5758 5760 5759 5760 5758 5758 5758 5758 5756 5754 5752 5750 5749 5745 5741 5737 5734 5731 5727 5722 5716 5710 5704 5697 5690 5683 5675 5667 5660 5652 5644 5635
5715 5721 5725 5729 5734 5737 5741 5745 5747 5751 5752 5754 5755 5756 5753 5753 5751 5750 5750 5750 5749 5746 5744 5742 5740 5736 5732 5728 5724 5719 5714 5708 5702 5695 5688 5680 5673 5665 5657 5650 5641 5632 5623 5613
5715 5719 5725 5731 5736 5738 5740 5742 5744 5747 5749 5750 5751 5748 5748 5745 5745 5745 5744 5742 5739 5738 5736 5735 5732 5727 5722 5717 5711 5705 5699 5692 5685 5677 5670 5664 5656 5648 5639 5630 5620 5610 5599 5588
5716 5720 5723 5725 5729 5733 5735 5738 5740 5742 5742 5744 5744 5744 5738 5738 5740 5739 5736 5733 5731 5729 5726 5722 5718 5714 5710 5704 5698 5691 5683 5675 5668 5662 5654 5646 5638 5629 5618 5608 5596 5585 5574 5563
5712 5716 5720 5724 5728 5730 5732 5733 5734 5735 5736 5737 5737 5738 5734 5734 5732 5731 5729 5726 5723 5719 5716 5711 5707 5702 5696 5689 5681 5674 5667 5659 5652 5644 5636 5627 5617 5606 5593 5582 5571 5559 5549 5538
5710 5713 5717 5721 5722 5723 5726 5726 5728 5728 5729 5730 5732 5731 5730 5730 5727 5724 5721 5718 5714 5709 5703 5698 5693 5688 5682 5675 5668 5660 5652 5645 5636 5626 5616 5605 5596 5583 5571 5559 5546 5535 5526 5517
5706 5709 5712 5715 5717 5719 5722 5721 5723 5723 5722 5724 5725 5725 5724 5722 5719 5716 5711 5706 5701 5697 5691 5686 5679 5673 5666 5660 5652 5644 5636 5627 5618 5607 5595 5583 5571 5558 5545 5534 5523 5514 5507 5499
5704 5706 5709 5710 5713 5715 5715 5716 5717 5717 5717 5718 5718 5717 5715 5712 5709 5704 5699 5694 5690 5685 5680 5673 5666 5659 5651 5643 5635 5626 5618 5608 5596 5583 5569 5556 5544 5534 5523 5514 5505 5497 5489 5482
5698 5700 5703 5704 5706 5708 5708 5710 5711 5711 5711 5711 5710 5708 5704 5700 5697 5693 5688 5683 5679 5673 5666 5658 5650 5642 5634 5626 5618 5609 5599 5587 5574 5560 5546 5533 5522 5513 5505 5496 5488 5480 5471 5463
5694 5695 5697 5698 5700 5702 5703 5705 5704 5706 5708 5702 5699 5697 5693 5689 5685 5681 5676 5670 5664 5657 5650 5642 5632 5624 5617 5609 5600 5588 5577 5566 5552 5538 5527 5516 5506 5496 5487 5480 5470 5462 5454 5445
5690 5691 5692 5694 5695 5696 5698 5698 5698 5698 5695 5694 5690 5686 5682 5677 5671 5666 5661 5655 5649 5641 5633 5625 5617 5608 5599 5591 5580 5568 5555 5543 5531 5520 5509 5499 5490 5480 5470 5462 5453 5442 5431 5422
5685 5687 5688 5689 5689 5690 5689 5690 5688 5686 5683 5681 5677 5672 5666 5661 5656 5650 5644 5638 5631 5622 5614 5606 5599 5590 5581 5571 5559 5545 5533 5522 5513 5502 5492 5483 5474 5464 5453 5444 5433 5423 5410 5396
5678 5679 5682 5681 5680 5679 5678 5677 5675 5674 5670 5667 5663 5657 5652 5646 5640 5635 5628 5621 5614 5607 5598 5590 5581 5572 5560 5547 5533 5523 5514 5504 5494 5485 5476 5467 5459 5449 5438 5426 5412 5400 5385 5370
5669 5673 5674 5674 5671 5667 5665 5663 5662 5659 5656 5653 5649 5644 5639 5633 5627 5622 5616 5608 5600 5592 5584 5574 5563 5551 5539 5527 5514 5504 5495 5487 5478 5470 5462 5452 5442 5430 5419 5406 5391 5379 5364 5344
5659 5663 5664 5663 5661 5659 5656 5652 5649 5646 5642 5638 5634 5629 5625 5621 5615 5608 5600 5591 5584 5576 5567 5556 5545 5533 5522 5510 5498 5489 5480 5471 5463 5455 5445 5434 5422 5411 5397 5384 5376 5362 5343 5331